Location: Baia Mare
(47.6567°N, 23.5850°E)
Time: 02:25:45
(UTC+03:00)

ISS - Pass Details

Date: 12 September 2018
Orbit: 403 x 409 km, 51.6° (Epoch: 24 September)

Event Time Altitude Azimuth Distance (km) Brightness Sun altitude
Exits shadow 03:49:24 15° 60° (ENE) 1,181 -0.7 -28.9°
Drops below altitude 10° 03:50:09 10° 65° (ENE) 1,465 -0.2 -28.8°
Sets 03:52:18 0° 73° (ENE) 2,324 0.9 -28.5°
